RH
76 76 77 76 78 77 68 59 42 31 27 24 27 35 45 50 57 61 58 75 70 60 54 52 51 47 47 50 52 53 56 57 57 57 58 60 60 60 60 59 59 59 59
75 80 79 78 78 76 68 54 39 29 27 25 25 30 44 50 55 61 57 55 70 62 53 48 44 42 44 47 47 50 54 53 55 56 58 58 58 59 59 58 59 59 58
76 79 78 80 76 75 66 54 34 28 29 25 25 27 44 48 53 56 58 54 52 65 53 44 43 39 42 43 44 47 46 46 49 52 56 57 57 57 56 56 56 56 56
75 79 80 79 75 75 64 51 38 33 30 28 27 27 32 48 50 52 56 50 46 40 48 42 38 39 38 36 38 39 39 42 43 46 49 52 54 55 55 54 54 54 54
74 75 78 77 76 76 62 48 39 33 33 32 29 30 30 34 48 49 49 48 46 44 38 43 47 42 34 32 33 34 37 39 40 42 46 47 50 53 56 54 54 54 54
76 76 76 77 77 77 67 48 40 36 33 33 22 28 36 34 34 49 46 41 41 45 38 44 40 37 41 34 30 32 35 39 40 39 43 45 49 50 53 56 54 54 54
78 80 76 75 78 76 68 51 39 38 38 34 37 38 39 37 35 38 46 41 40 40 35 36 30 27 27 41 42 39 38 44 44 42 42 45 47 50 53 54 56 54 54
77 80 78 78 76 74 67 53 42 41 40 38 36 42 40 35 35 34 36 38 36 36 34 32 29 30 32 31 38 45 46 43 44 44 45 47 49 51 53 54 54 54 54
76 79 78 76 77 72 66 57 47 46 45 43 40 34 47 42 37 37 37 38 35 36 34 32 29 31 31 31 37 41 48 45 46 47 50 52 54 55 55 55 55 55 55
80 80 78 76 78 77 71 63 54 55 54 49 49 38 36 36 41 38 34 37 35 33 35 34 30 32 32 37 49 49 46 46 47 50 53 55 57 57 58 57 57 57 56
83 84 80 79 77 78 78 75 64 54 54 53 51 43 37 41 36 42 39 38 37 34 33 30 32 30 34 36 40 44 47 48 50 53 56 58 60 60 60 59 59 58 58
90 86 84 81 78 77 76 75 71 67 61 58 51 42 35 35 40 31 38 36 36 36 36 36 34 34 34 35 39 47 47 49 51 55 58 61 61 62 62 63 62 61 60
95 91 88 87 83 80 77 77 77 75 69 66 62 49 40 44 46 39 44 46 46 44 37 37 38 38 34 36 38 46 50 50 53 57 62 65 63 62 63 64 64 63 61
86 85 88 86 82 79 78 79 81 78 73 68 64 53 51 42 45 50 63 73 71 58 49 39 45 40 37 38 42 47 38 54 56 60 61 61 61 61 62 64 64 63 62
85 82 86 89 85 80 78 78 81 79 71 68 67 63 59 68 71 68 64 52 50 54 46 47 46 40 40 41 44 38 41 54 59 58 59 60 60 61 62 62 62 61 61
85 86 85 85 85 82 80 79 78 71 71 66 61 57 59 60 66 70 74 71 66 48 50 50 52 47 46 42 47 46 46 59 58 61 61 60 61 62 62 62 61 61 60
85 86 84 82 79 78 74 73 69 62 64 62 61 62 68 69 74 77 83 82 86 86 87 81 78 78 81 67 54 48 49 49 47 62 63 62 62 63 63 62 61 61 60
83 81 78 77 72 69 64 62 61 62 64 71 76 77 82 80 92 92 88 86 89 94 91 90 81 77 69 60 53 52 50 46 48 56 64 64 62 63 64 64 63 63 61
74 69 67 62 58 60 60 61 63 68 73 76 81 83 78 79 89 94 96 99 99 98 95 89 79 73 65 57 57 55 56 55 52 62 63 63 65 66 67 66 64 62 62
61 57 59 61 65 66 67 70 72 78 80 80 85 88 89 92 98 100 100 100 97 90 84 84 80 72 66 60 64 65 61 53 52 47 56 62 67 65 64 64 63 64 66
68 69 73 72 71 71 71 78 80 85 90 95 97 99 100 100 100 100 92 86 89 85 80 81 76 70 67 63 62 58 62 56 58 58 58 54 54 53 54 62 64 66 67
78 79 81 84 87 83 86 86 88 93 97 99 99 99 97 96 91 91 88 82 75 78 84 79 78 70 64 64 62 63 70 71 78 51 59 58 53 54 51 51 61 67 68
88 91 92 90 93 90 87 90 94 98 99 99 95 91 86 80 89 87 71 57 63 61 60 64 70 65 65 61 80 84 79 77 79 61 60 65 52 54 51 47 63 66 67
95 96 97 98 97 96 96 96 95 95 92 88 73 76 76 70 70 61 59 73 65 64 63 63 63 60 60 63 70 86 82 69 60 56 55 80 54 55 49 49 62 66 68
98 99 99 100 100 98 92 74 68 59 61 66 71 67 66 62 60 57 59 78 70 68 57 61 60 65 65 64 60 61 77 80 79 62 55 64 63 63 60 59 51 62 64
100 98 100 100 97 95 82 83 58 50 56 56 59 56 60 56 60 60 69 76 68 59 59 66 58 54 53 54 68 60 73 93 89 84 60 76 71 72 81 55 60 55 52
Wind_Speed
7 7 6 6 5 5 5 5 5 4 5 5 4 4 4 4 4 3 3 7 8 9 8 8 8 7 6 7 7 7 8 8 8 8 8 8 8 8 8 9 9 9 9
7 7 8 7 6 6 5 5 6 5 4 4 5 4 4 4 5 5 4 5 8 8 8 7 6 5 6 6 6 6 6 7 7 6 7 6 6 7 7 7 8 8 9
10 9 8 8 7 6 7 5 5 4 4 4 5 4 4 5 4 5 4 4 6 7 7 7 7 5 5 5 5 5 5 4 5 5 5 5 5 5 5 6 6 7 7
12 11 9 9 8 7 6 6 6 5 4 4 4 4 4 4 5 5 4 4 3 4 6 6 5 6 5 4 4 4 3 4 3 3 3 4 5 5 5 5 6 6 7
14 11 9 9 10 8 7 7 5 5 5 5 4 3 3 4 5 4 6 5 5 4 4 5 5 6 4 3 3 3 3 4 5 4 4 5 5 6 7 7 7 8 9
15 12 10 11 10 9 8 8 8 5 4 6 5 3 2 3 3 5 6 5 5 5 5 5 4 3 3 2 1 2 3 5 6 5 6 7 7 8 8 10 10 10 11
15 14 11 12 11 11 12 12 7 8 4 6 5 2 2 3 5 5 5 6 6 6 5 5 4 3 2 2 2 3 5 6 8 8 8 8 9 10 11 11 12 13 13
15 14 14 13 14 10 12 13 12 6 3 8 4 2 3 4 4 5 5 6 8 6 6 6 5 5 3 1 1 3 5 8 9 9 9 10 11 12 13 13 15 15 16
16 17 17 14 14 11 11 12 12 13 7 7 6 4 3 5 3 3 6 5 7 6 6 6 6 5 3 2 1 2 2 4 6 8 9 11 13 14 15 17 17 18 19
15 16 16 15 14 11 13 13 10 11 8 7 2 5 2 3 4 4 3 5 6 7 8 6 6 5 4 3 4 3 3 4 7 9 11 13 15 17 19 20 21 21 20
14 15 15 15 15 12 13 14 13 14 10 8 6 4 2 1 1 1 4 4 4 5 5 6 5 5 5 5 3 2 3 6 8 11 14 16 17 19 20 21 22 22 22
10 15 14 14 14 14 15 14 14 16 13 8 8 7 6 5 4 4 1 2 3 3 4 4 4 4 5 4 3 2 4 8 11 14 16 18 19 19 20 22 23 23 23
6 13 17 15 13 14 12 12 13 13 14 12 10 7 5 3 3 3 3 2 2 2 2 4 4 5 5 4 3 3 3 9 12 15 17 19 20 20 21 21 22 23 23
10 11 14 14 16 14 13 11 9 9 11 10 10 6 4 3 2 2 5 4 2 3 2 3 2 4 5 4 3 3 5 9 12 16 18 20 21 21 21 22 22 23 23
8 11 12 12 11 12 13 12 9 11 10 9 7 7 6 4 3 3 4 3 2 4 5 4 3 4 4 3 4 5 5 8 14 16 18 20 22 22 22 23 23 24 25
7 8 9 10 10 11 12 11 9 10 9 6 7 10 7 5 4 4 4 4 3 1 2 1 2 2 2 3 6 7 6 10 14 17 19 20 21 22 22 23 24 25 25
6 8 9 10 11 11 11 10 9 10 11 10 10 11 10 8 6 5 5 3 4 3 2 1 2 2 3 8 7 6 6 7 8 16 20 22 22 21 22 23 23 25 25
5 8 8 9 9 9 9 10 11 10 12 12 10 12 10 7 8 5 3 4 3 3 3 3 2 5 7 6 6 8 7 7 9 15 22 24 23 22 22 22 23 23 24
4 6 9 10 9 10 10 11 12 13 12 12 10 9 9 8 7 5 4 3 2 3 3 3 4 3 4 4 5 7 8 8 8 16 21 22 21 20 21 21 22 23 24
9 9 10 11 10 11 12 13 13 14 13 11 10 9 7 6 6 4 3 1 1 2 4 6 5 6 4 4 4 7 8 8 10 10 15 17 18 19 21 23 24 25 25
11 11 12 12 11 11 9 13 13 12 12 11 8 7 5 6 6 5 4 4 4 5 5 5 6 5 5 6 8 8 10 9 10 11 10 9 9 10 12 17 20 24 23
11 12 13 12 12 9 22 21 14 11 10 8 7 6 4 4 2 1 1 6 9 6 5 3 5 7 7 8 8 8 9 10 10 7 8 12 10 12 12 11 20 24 26
11 12 12 13 12 12 20 20 18 8 8 7 6 5 5 3 3 4 6 3 5 8 8 6 7 8 9 9 9 10 10 11 10 11 13 13 11 13 11 12 22 25 27
11 11 12 13 12 11 19 18 18 9 7 6 6 6 4 3 2 3 3 3 4 4 4 4 7 9 9 9 9 8 11 12 11 11 11 11 11 11 11 11 23 27 27
10 9 9 10 10 10 15 13 8 7 7 6 5 4 3 1 5 7 3 3 4 5 6 11 11 12 13 16 14 8 8 8 9 10 9 10 9 10 11 12 12 20 22
9 8 8 7 12 8 11 9 6 4 5 4 3 3 4 4 6 7 4 2 4 7 7 6 5 9 9 9 12 7 6 7 8 8 1 5 9 9 7 7 7 9 12
Wind_Direction
196 195 197 188 187 177 175 166 163 156 147 139 130 138 141 137 127 119 126 109 114 130 130 123 113 105 98 91 82 76 69 59 53 51 53 48 40 36 34 29 26 22 18
199 197 193 193 189 190 181 179 176 169 158 154 138 147 150 150 148 141 131 130 115 133 134 125 119 113 110 103 90 83 71 53 47 46 49 42 41 37 30 25 19 15 9
204 195 195 191 193 190 182 168 165 160 156 151 151 155 166 165 161 155 143 130 132 121 138 143 137 126 112 95 80 70 63 43 39 29 31 27 26 19 15 10 11 6 0
204 203 197 195 193 184 183 179 172 172 175 180 166 168 173 174 175 168 161 154 143 139 132 138 146 140 114 98 95 79 48 24 7 359 352 350 342 338 337 341 342 343 339
203 208 207 203 190 185 185 180 174 183 182 178 169 172 176 180 183 178 177 170 163 155 143 140 130 126 119 103 91 42 27 9 345 322 302 306 313 314 310 310 315 319 321
202 204 208 209 195 190 187 182 179 179 188 167 158 167 183 190 199 199 191 181 181 174 171 158 154 122 73 56 44 2 343 338 332 316 295 303 300 302 299 298 297 305 308
199 204 205 207 202 202 194 188 173 182 168 163 136 145 212 225 215 208 198 192 187 187 187 181 176 182 161 54 30 333 317 320 317 310 303 295 299 297 296 290 289 292 295
195 197 203 206 202 201 195 188 182 161 160 180 156 123 203 203 218 211 205 204 198 190 194 193 182 184 181 160 5 358 326 314 309 306 300 296 294 293 291 289 290 290 289
200 195 200 200 197 195 196 192 188 181 168 188 214 164 154 222 161 174 218 215 205 201 198 187 178 171 174 154 117 63 1 350 324 314 308 306 304 299 293 289 290 293 293
207 204 200 197 192 191 195 194 188 190 166 173 198 223 241 154 183 193 210 218 215 210 200 187 177 165 162 140 98 64 43 348 320 315 308 304 301 299 295 292 289 288 289
208 207 205 199 194 196 205 193 183 193 196 177 172 161 196 297 116 188 181 184 222 218 210 196 184 170 158 154 142 91 16 334 326 319 311 306 302 298 293 291 290 290 292
206 206 204 205 205 199 196 195 192 195 196 193 188 183 170 176 187 174 148 168 182 174 201 199 209 184 159 156 138 80 352 334 323 316 311 306 303 301 299 298 295 292 289
199 206 200 203 205 209 204 191 191 193 194 198 186 186 182 174 155 137 125 115 133 99 211 224 208 192 175 171 159 326 355 325 322 317 311 309 309 306 301 297 292 289 286
218 219 218 205 205 198 195 191 196 196 191 195 173 159 139 152 149 150 142 148 100 214 216 179 170 199 189 180 185 321 318 328 317 311 310 309 306 304 299 296 291 287 285
216 205 203 207 203 198 191 189 184 186 182 175 144 137 129 124 108 129 120 130 186 173 194 201 147 188 208 210 250 314 306 292 297 299 304 303 303 300 295 291 288 285 282
210 188 186 189 180 174 170 172 171 167 160 148 137 136 126 121 94 113 68 78 110 191 146 88 110 71 323 294 289 286 281 284 284 292 300 299 297 294 292 288 284 280 278
176 172 170 165 168 168 166 156 152 150 144 134 129 129 120 118 106 81 73 76 83 103 177 267 67 97 247 248 266 284 293 288 284 288 297 297 298 294 289 288 287 285 284
166 154 151 153 152 150 145 142 136 136 132 126 122 118 116 117 112 111 115 114 117 113 189 235 247 219 225 257 278 285 282 281 286 291 296 298 298 297 294 289 287 285 284
118 134 136 135 130 128 123 120 121 116 111 110 107 106 117 117 113 124 148 149 151 180 220 244 261 243 251 266 283 280 281 287 286 289 294 295 294 293 290 288 287 288 288
93 94 94 99 102 106 109 110 109 105 101 101 107 108 116 123 126 133 114 59 245 231 223 241 253 257 253 257 253 293 303 301 301 298 286 286 287 287 290 288 290 288 286
84 88 89 86 91 94 98 98 100 103 104 102 98 96 104 108 117 156 168 195 232 233 236 245 259 259 277 291 301 309 297 303 301 286 282 287 290 286 280 281 276 281 285
83 85 84 89 90 94 105 105 103 101 102 103 97 100 94 113 151 107 24 239 230 227 243 256 267 282 300 296 293 294 301 303 308 291 292 289 291 283 283 281 281 284 281
86 84 89 93 95 99 105 103 98 85 88 93 108 122 145 133 124 216 223 285 301 295 296 280 283 285 291 298 296 297 294 291 285 285 289 292 291 285 286 277 279 279 280
73 79 81 82 81 87 95 100 102 104 112 130 136 131 128 159 202 283 285 267 269 283 281 280 279 290 293 290 282 271 279 290 287 285 287 282 288 286 289 281 279 281 282
71 72 76 79 86 91 91 94 105 103 105 110 100 106 157 357 326 304 300 280 270 276 292 303 305 303 303 301 298 297 287 298 296 290 294 278 279 293 291 281 274 270 274
76 76 73 67 77 91 110 106 100 101 103 105 89 50 356 338 313 304 338 279 294 298 297 299 296 299 302 297 301 288 280 276 286 292 163 275 297 315 304 279 279 285 282